Location: Shepherdstown, WV
(39.4326°N, 77.8042°W)
Time: 18:52:58
(UTC-04:00)

STARLINK-2741 - Pass Details

Date: 19 June 2021
Orbit: 348 x 351 km, 53.0° (Epoch: 26 July)

Event Time Altitude Azimuth Distance (km) Brightness Sun altitude
Exits shadow 04:58:12 - 179° (S) 2,005 6.1 -8.0°
Reaches altitude 10° 05:01:14 10° 138° (SE) 1,308 5.6 -7.6°
Maximum altitude 05:01:47 10° 127° (SE) 1,287 5.7 -7.5°
Drops below altitude 10° 05:02:20 10° 116° (ESE) 1,310 5.9 -7.4°
Sets 05:05:48 0° 72° (ENE) 2,160 8.2 -6.9°
